SCP
0 0 0 0 0 0 0 0 0 0 0 0 0 0 0 0 0 0 0 0 0 0 0 0 0 0 0 0 0 0 0 0 0 0 0 0 0 0 0 0 0 0 0
0 0 0 0 0 0 0 0 0 0 0 0 0 0 0 0 0 0 0 0 0 0 0 0 0 0 0 0 0 0 0 0 0 0 0 0 0 0 0 0 0 0 0
0 0 0 0 0 0 0 0 0 0 0 0 0 0 0 0 0 0 0 0 0 0 0 0 0 0 0 0 0 0 0 0 0 0 0 0 0 0 0 0 0 0 0
0 0 0 0 0 0 0 0 0 0 0 0 0 0 0 0 0 0 0 0 0 0 0 0 0 0 0 0 0 0 0 0 0 0 0 0 0 0 0 0 0 0 0
0 0 0 0 0 0 0 0 0 0 0 0 0 0 0 0 0 0 0 0 0 0 0 0 0 0 0 0 0 0 0 0 0 0 0 0 0 0 0 0 0 0 0
0 0 0 0 0 0 0 0 0 0 0 0 0 0 0 0 0 0 0 0 0 0 0 0 0 0 0 0 0 0 0 0 0 0 0 0 0 0 0 0 0 0 0
0 0 0 0 0 0 0 0 0 0 0 0 0 0 0 0 0 0 0 0 0 0 0 0 0 0 0 0 0 0 0 0 0 0 0 0 0 0 0 0 0 0 0
0 0 0 0 0 0 0 0 0 0 0 0 0 0 0 0 0 0 0 0 0 0 0 0 0 0 0 0 0 0 0 0 0 0 0 0 0 0 0 0 0 0 0
-0 0 0 0 0 0 0 0 0 0 0 0 0 0 0 0 0 0 0 0 0 0 0 0 0 0 0 0 0 0 0 0 0 0 0 0 0 0 0 0 0 0 0
-0 -0 0 0 0 0 0 0 0 0 0 0 0 0 0 0 0 0 0 0 0 0 0 0 0 0 0 0 0 0 0 0 0 0 0 0 0 0 0 0 0 0 0
-0 -0 -0 -0 0 0 0 0 0 0 0 0 0 0 0 0 0 0 0 0 0 0 0 0 0 0 0 0 0 0 0 0 0 0 0 0 0 0 0 0 0 0 0
-0 -0 -0 -0 0 0 0 0 0 0 0 0 0 0 0 0 0 0 0 0 0 0 0 0 0 0 0 0 0 0 0 0 0 0 0 0 0 0 0 0 0 0 0
-0 -0 -0 -0 -0 0 0 0 0 0 0 0 0 0 0 0 0 0 0 0 0 0 0 0 0 0 0 0 0 0 0 0 0 0 0 0 0 0 0 0 0 0 0
0 0 0 -0 -0 0 0 0 0 0 0 0 0 0 0 0 0 0 0 0 0 0 0 0 0 0 0 0 0 0 0 0 0 0 0 0 0 0 0 0 0 0 0
0 0 0 -0 -0 0 0 0 0 0 0 0 0 0 0 0 0 0 0 0 0 0 0 0 0 0 0 0 0 0 0 0 0 0 0 0 0 0 0 0 0 0 0
0 0 0 -0 -0 0 0 0 0 0 0 0 0 0 0 0 0 0 0 0 0 0 0 0 0 0 0 0 0 0 0 0 0 0 0 0 0 0 0 0 0 0 0
0 0 0 -0 -0 -0 0 0 0 0 0 0 0 0 0 0 0 0 0 0 0 0 0 0 0 0 0 0 0 0 0 0 0 0 0 0 0 0 0 0 0 0 0
0 0 0 0 -0 -0 0 0 0 0 0 0 0 0 0 0 0 0 0 0 0 0 0 0 0 0 0 0 0 0 0 0 0 0 0 0 0 0 0 0 0 0 0
0 0 0 0 0 0 0 0 0 0 0 0 0 0 0 0 0 0 0 0 0 0 0 0 0 0 0 0 0 0 0 0 0 0 0 0 0 0 0 0 0 0 0
0 0 0 0 0 0 0 0 0 0 0 0 0 0 0 0 0 0 0 0 0 0 0 0 0 0 0 0 0 0 0 0 0 0 0 0 0 0 0 0 0 0 0
0 0 0 0 0 0 0 0 0 0 0 0 0 0 0 0 0 0 0 0 0 0 0 0 0 0 0 0 0 0 0 0 0 0 0 0 0 0 0 0 0 0 0
0 0 0 0 0 0 0 0 0 0 0 0 0 0 0 0 0 0 0 0 0 0 0 0 0 0 0 0 0 0 0 0 0 0 0 0 0 0 0 0 0 0 0
0 0 0 0 0 0 0 0 0 0 0 0 0 0 0 0 0 0 0 0 0 0 0 0 0 0 0 0 0 0 0 0 0 0 0 0 0 0 0 0 0 0 0
0 0 0 0 0 0 0 0 0 0 0 0 0 0 0 0 0 0 0 0 0 0 0 0 0 0 0 0 0 0 0 0 0 0 0 0 0 0 0 0 0 0 0
0 0 0 0 0 0 0 0 0 0 0 0 0 0 0 0 0 0 0 0 0 0 0 0 0 0 0 0 0 0 0 0 0 0 0 0 0 0 0 0 0 0 0
0 0 0 0 0 0 0 0 0 0 0 0 0 0 0 0 0 0 0 0 0 0 0 0 0 0 0 0 0 0 0 0 0 0 0 0 0 0 0 0 0 0 0
Wind_Speed
3 2 3 2 2 2 3 3 3 3 3 3 4 4 5 5 5 6 8 9 9 10 9 8 9 9 8 9 10 9 9 8 6 6 6 8 10 11 9 10 10 11 12
3 2 2 2 2 2 2 3 2 3 3 3 4 4 4 4 5 5 7 9 9 9 8 10 9 9 9 11 11 10 8 7 7 6 4 5 7 8 9 10 10 11 10
3 3 2 2 2 2 2 3 3 3 3 3 3 3 4 4 4 5 5 7 8 10 10 11 10 10 10 9 11 10 11 9 8 8 6 5 6 4 7 10 10 10 10
3 3 3 2 2 2 2 3 3 4 3 3 4 5 5 5 6 5 5 7 8 9 10 10 11 10 10 10 11 11 10 10 8 8 9 9 6 6 5 6 8 10 11
3 3 3 3 3 3 3 3 4 4 4 4 4 5 5 6 5 5 7 7 7 8 9 10 10 11 10 11 12 11 11 10 10 8 7 9 8 10 8 7 7 7 8
2 3 3 3 4 4 3 4 4 5 4 5 5 5 6 7 7 7 6 6 5 6 9 9 10 10 10 11 11 11 13 11 12 10 9 8 8 8 9 10 9 8 7
2 3 3 3 4 4 4 4 5 5 5 5 6 6 7 8 8 7 7 6 6 6 7 8 9 9 10 11 11 11 12 13 13 12 10 10 10 8 9 9 9 9 7
2 3 4 4 4 5 5 5 5 5 5 5 6 6 6 6 6 8 7 7 6 7 8 9 9 10 11 11 11 10 12 11 13 13 13 10 10 9 9 9 8 8 8
3 4 5 5 5 5 6 6 6 6 5 5 5 5 5 6 7 7 7 7 7 7 9 9 10 10 10 10 10 10 12 12 12 12 13 11 10 9 9 9 9 9 9
4 5 5 6 6 6 6 5 6 5 5 5 4 4 5 5 6 6 7 7 8 7 8 9 9 10 10 10 11 10 11 12 12 10 12 12 10 9 9 9 9 10 10
5 5 5 6 6 6 6 5 5 5 5 5 4 4 5 5 6 6 7 7 8 8 8 9 9 10 10 10 10 11 11 12 12 11 12 14 13 10 9 9 9 10 10
5 5 5 6 6 6 6 6 6 5 5 5 5 5 5 5 6 6 7 7 8 8 8 8 9 9 9 10 11 12 12 13 13 12 12 13 10 12 10 9 11 10 11
5 5 5 6 6 6 6 6 6 6 6 5 5 5 5 6 6 7 7 7 8 8 8 8 9 9 9 10 10 11 11 12 12 12 13 13 12 13 11 11 11 9 9
6 6 6 6 6 6 6 6 6 6 7 6 6 6 6 7 7 7 7 7 8 8 8 8 8 9 10 10 10 10 11 11 12 12 12 12 12 13 12 10 11 10 10
6 6 6 6 7 7 6 6 7 7 7 7 7 7 7 7 7 7 7 7 8 8 8 8 9 9 9 8 9 10 10 11 11 11 11 11 12 13 11 9 9 9 9
7 7 7 7 7 7 7 7 7 7 7 7 7 7 8 8 8 8 8 8 8 8 8 9 9 10 8 9 10 10 10 10 10 10 10 9 10 10 11 12 11 11 10
7 7 8 7 7 7 6 7 7 7 7 7 7 7 8 8 8 8 8 8 8 8 8 9 9 9 10 10 11 10 10 9 9 9 8 7 7 8 8 8 9 10 11
7 7 7 7 6 6 6 6 6 7 7 7 7 8 8 8 8 9 9 8 7 7 8 8 9 9 9 10 10 10 9 9 8 8 9 8 8 7 7 7 7 7 8
6 6 6 6 6 6 6 6 7 7 7 7 8 8 8 8 8 9 8 7 7 7 8 7 8 9 9 9 9 8 7 6 7 7 7 7 8 7 6 6 6 6 6
5 5 5 6 6 6 6 6 7 7 8 8 9 8 8 8 8 8 8 7 7 7 7 7 7 8 9 8 8 7 5 5 5 5 6 7 7 7 6 6 6 6 5
5 5 6 6 5 6 6 7 7 8 8 9 9 8 8 8 8 8 7 7 7 7 7 8 7 8 7 7 7 7 4 4 5 4 4 4 5 5 5 5 5 5 3
5 6 6 6 5 5 6 7 7 8 8 8 8 8 8 7 6 7 7 6 6 7 6 6 6 5 5 5 5 6 6 6 5 5 4 3 4 4 5 4 3 3 2
5 5 6 6 6 5 6 7 8 8 8 8 8 7 7 6 6 6 6 6 5 5 5 5 5 5 5 5 6 6 6 7 5 4 4 5 4 4 4 3 3 2 2
5 5 5 6 6 6 6 7 7 7 7 8 7 7 6 6 6 5 5 5 4 4 4 5 5 5 5 5 5 4 4 4 4 4 3 3 3 2 2 2 2 2 2
4 5 5 6 7 6 6 6 6 6 7 7 6 6 6 5 5 5 5 6 5 5 6 5 5 5 6 7 9 7 4 4 3 3 2 2 2 1 1 0 0 1 1
4 5 6 6 6 6 6 6 6 6 6 6 5 5 5 4 4 5 5 6 7 9 9 9 8 6 8 11 11 10 8 7 5 3 1 1 1 1 0 0 0 1 1
Wind_Direction
263 265 266 261 253 252 254 248 244 235 229 229 227 227 231 233 234 233 235 234 235 234 234 235 233 228 226 228 228 227 229 229 230 237 246 249 245 241 237 237 236 236 235
268 273 262 252 253 255 252 245 249 248 242 244 237 236 242 239 242 240 240 238 237 236 236 236 233 230 229 230 229 226 227 228 217 219 236 248 241 234 236 235 236 239 236
274 280 281 275 264 256 256 257 247 247 250 253 244 239 241 239 237 238 240 240 240 237 234 237 238 234 231 232 230 225 225 227 221 217 219 231 240 249 228 231 233 234 235
284 295 305 312 299 288 275 263 255 248 251 251 247 241 247 249 252 251 246 247 246 245 240 238 238 238 235 234 232 227 228 228 226 222 227 240 253 248 249 228 232 237 238
312 309 306 306 310 314 305 289 276 264 261 255 248 248 253 258 260 257 255 253 248 245 245 243 242 240 238 237 234 230 228 227 228 225 222 233 243 244 247 252 241 237 238
333 326 321 317 319 326 318 307 294 285 277 266 252 249 258 260 258 257 258 258 256 250 248 246 244 243 241 239 235 232 230 230 231 229 225 222 224 230 236 246 247 248 243
351 341 333 329 327 326 319 305 300 296 293 278 262 256 258 262 257 258 257 259 258 256 256 254 251 247 244 242 239 235 234 232 232 231 230 229 232 234 236 243 251 256 255
3 347 336 327 325 323 318 313 305 299 298 290 278 267 264 263 262 258 260 257 257 258 260 257 257 256 252 248 242 238 237 236 233 233 233 233 233 233 233 237 245 255 255
353 343 337 333 324 320 320 317 308 301 298 295 289 281 273 267 268 269 264 261 261 264 262 261 259 258 257 252 249 243 240 239 235 234 234 234 234 232 232 234 233 240 254
330 333 331 335 330 324 320 320 315 305 299 296 293 290 286 280 278 276 276 269 267 267 266 263 261 260 258 255 251 247 243 242 238 234 233 234 235 234 232 232 233 233 242
316 324 326 330 330 331 327 322 319 316 310 306 299 294 293 292 287 283 280 280 273 269 267 266 265 262 261 258 254 249 244 242 243 238 236 236 235 235 233 231 230 232 234
311 315 320 324 328 332 331 325 321 318 311 306 300 298 299 295 289 288 289 287 282 276 272 269 266 264 263 262 258 255 248 245 243 242 241 242 239 238 237 234 233 232 233
307 311 316 320 322 327 329 328 324 318 312 304 299 299 299 297 294 294 297 296 290 284 275 268 265 265 265 264 261 259 253 249 248 245 241 241 240 240 238 237 236 235 236
298 305 311 317 320 321 326 326 325 322 315 305 299 298 300 300 299 297 296 296 293 287 283 275 270 269 266 262 260 262 259 253 251 249 247 244 240 240 239 238 239 238 238
297 302 306 314 319 319 322 323 321 323 321 309 301 298 299 299 298 296 296 295 292 289 285 283 276 269 265 263 263 265 263 258 255 253 251 248 245 244 242 240 240 240 239
299 305 308 312 314 315 317 319 320 322 319 311 307 305 302 300 299 299 297 293 291 290 287 282 279 273 267 274 272 272 266 262 258 256 256 255 247 246 244 243 241 240 241
300 307 310 312 313 315 314 314 318 318 316 312 308 308 305 301 300 299 297 295 292 291 287 285 283 280 279 281 276 275 269 265 261 258 256 257 252 249 247 247 243 244 245
298 306 310 311 313 313 313 311 312 312 310 309 309 309 307 302 301 299 296 295 292 289 287 286 284 283 285 291 288 281 270 266 264 260 253 252 252 246 247 247 244 245 246
300 305 309 308 307 309 313 309 306 308 307 307 308 309 307 305 305 301 298 296 293 290 288 286 285 285 287 293 294 290 278 270 268 265 256 251 253 248 240 240 241 246 249
305 306 307 305 302 307 309 304 304 306 308 309 309 308 307 303 301 301 302 301 299 295 294 290 285 286 288 293 295 294 282 278 276 273 264 251 251 248 232 234 234 239 246
305 304 302 300 303 308 306 302 302 304 309 309 307 307 306 303 301 302 301 302 303 299 296 295 289 286 286 291 297 299 287 281 282 279 276 270 261 251 238 239 240 237 240
300 300 298 298 302 304 301 298 301 310 312 308 306 307 310 309 306 306 305 301 301 299 299 298 299 300 298 298 302 302 298 299 283 279 282 281 279 257 245 239 233 215 221
299 298 293 295 299 301 299 297 305 312 309 306 307 311 313 311 307 304 304 301 303 302 305 305 306 312 315 315 316 309 304 303 294 285 284 289 285 269 246 236 229 204 206
300 299 293 292 297 304 301 299 306 307 305 306 309 311 311 313 313 309 306 306 303 301 304 308 310 312 313 317 322 314 309 307 299 298 293 290 286 270 249 246 220 211 198
298 294 290 291 297 302 301 305 307 306 307 308 309 310 310 310 312 314 313 311 305 302 304 305 305 306 308 315 317 315 311 308 304 309 308 312 318 323 308 236 141 153 149
288 286 288 292 297 300 302 307 308 307 306 305 309 310 308 307 308 309 313 319 313 318 315 314 311 309 311 319 318 319 318 314 306 301 295 310 308 291 258 180 160 145 145